Location: Il Ritiro
(43.4167°N, 13.1333°E)
Time: 01:41:16
(UTC+00:00)

Cosmos 1538 Rocket - Pass Details

Date: 05 July 2020
Orbit: 753 x 791 km, 74.0° (Epoch: 11 August)

Event Time Altitude Azimuth Distance (km) Brightness Sun altitude
Exits shadow 20:35:04 13° 183° (S) 2,111 5.8 -14.7°
Maximum altitude 20:39:41 61° 106° (ESE) 894 4.1 -15.2°
Drops below altitude 10° 20:44:56 10° 27° (NNE) 2,345 6.9 -15.8°
Sets 20:47:21 0° 24° (NNE) 3,272 7.7 -16.0°
